Cosmos 1689 Rocket - Orbit

View from above orbital plane
View from above orbital plane
View from above satellite
View from above satellite

Ground track
Ground track

The orbit data is extracted from the following two-line orbital elements,

1 16111U 85090B   13143.18964969  .00005827  00000-0  21833-3 0  1585
2 16111 097.4248 220.9623 0028221 339.8522 020.1601 15.27285625515539
Epoch (UTC): 23 May 2013 04:33:05
Eccentricity: 0.0028221
inclination: 97.4248°
perigee height: 464 km
apogee height: 503 km
right ascension of ascending node: 220.9623°
argument of perigee: 339.8522°
revolutions per day: 15.27285625
mean anomaly at epoch: 20.1601°
orbit number at epoch: 51553

The dashed part of the orbit path shows where the satellite is in the earth's shadow,  

Developed and maintained by Chris Peat, Heavens-Above GmbH. Please read the updated FAQ before sending e-mail. Imprint. DLR